DEHRS EDWG-EDXH

Flight info

Callsign DEHRS
Flight time 0h 16m
Altitude 4000
Route DHE
Aircraft C172/L-SFG/C

Departure

Time 2026-05-06 08:28
Airport Wangerooge Airport (EDWG)

Arrival

Time 2026-05-06 08:44
Airport Helgoland-Düne Airport (EDXH)
Time Latitude Longitude Altitude Speed Heading
2026-05-06 08:23 53.78782 7.90880 8 ft 0 kts 324°
2026-05-06 08:24 53.78794 7.90890 9 ft 6 kts 85°
2026-05-06 08:25 53.78727 7.90933 6 ft 19 kts 159°
2026-05-06 08:25 53.78589 7.91020 5 ft 20 kts 159°
2026-05-06 08:25 53.78429 7.91126 7 ft 30 kts 159°
2026-05-06 08:25 53.78348 7.91244 11 ft 8 kts 103°
2026-05-06 08:26 53.78329 7.91322 10 ft 7 kts 155°
2026-05-06 08:26 53.78303 7.91321 10 ft 0 kts 187°
2026-05-06 08:26 53.78299 7.91321 10 ft 5 kts 173°
2026-05-06 08:27 53.78269 7.91625 5 ft 53 kts 96°
2026-05-06 08:27 53.78247 7.92445 62 ft 78 kts 90°
2026-05-06 08:27 53.78233 7.93393 268 ft 83 kts 86°
2026-05-06 08:27 53.78554 7.94055 479 ft 89 kts
2026-05-06 08:28 53.79178 7.93398 529 ft 124 kts 315°
2026-05-06 08:28 53.79635 7.92130 645 ft 122 kts 331°
2026-05-06 08:28 53.80373 7.91693 780 ft 109 kts
2026-05-06 08:28 53.81133 7.91616 888 ft 112 kts
2026-05-06 08:29 53.81932 7.91557 929 ft 117 kts
2026-05-06 08:29 53.82765 7.91539 899 ft 120 kts
2026-05-06 08:29 53.83592 7.91529 892 ft 118 kts
2026-05-06 08:29 53.84403 7.91512 889 ft 115 kts
2026-05-06 08:30 53.85193 7.91500 889 ft 113 kts
2026-05-06 08:30 53.85979 7.91490 891 ft 112 kts
2026-05-06 08:30 53.86753 7.91478 893 ft 110 kts
2026-05-06 08:30 53.87512 7.91469 893 ft 108 kts
2026-05-06 08:31 53.88263 7.91459 894 ft 108 kts
2026-05-06 08:31 53.89014 7.91451 901 ft 108 kts
2026-05-06 08:31 53.89769 7.91442 902 ft 109 kts
2026-05-06 08:31 53.90528 7.91433 897 ft 108 kts
2026-05-06 08:32 53.91268 7.91418 899 ft 105 kts
2026-05-06 08:32 53.92005 7.91415 901 ft 107 kts
2026-05-06 08:32 53.92754 7.91405 902 ft 108 kts
2026-05-06 08:32 53.93505 7.91394 903 ft 108 kts
2026-05-06 08:33 53.94260 7.91385 906 ft 109 kts
2026-05-06 08:33 53.95026 7.91375 914 ft 111 kts
2026-05-06 08:33 53.95799 7.91366 918 ft 110 kts
2026-05-06 08:33 53.96558 7.91354 916 ft 108 kts
2026-05-06 08:34 53.97312 7.91345 913 ft 109 kts
2026-05-06 08:34 53.98817 7.91326 906 ft 108 kts
2026-05-06 08:34 53.99571 7.91317 909 ft 108 kts
2026-05-06 08:35 54.00330 7.91306 910 ft 111 kts
2026-05-06 08:35 54.01110 7.91298 909 ft 113 kts
2026-05-06 08:35 54.01898 7.91286 911 ft 113 kts
2026-05-06 08:35 54.02687 7.91277 912 ft 114 kts
2026-05-06 08:36 54.03481 7.91267 909 ft 114 kts
2026-05-06 08:36 54.04278 7.91255 910 ft 114 kts
2026-05-06 08:36 54.05071 7.91245 911 ft 114 kts
2026-05-06 08:36 54.05868 7.91235 915 ft 115 kts
2026-05-06 08:37 54.06670 7.91224 916 ft 115 kts
2026-05-06 08:37 54.07469 7.91214 915 ft 115 kts
2026-05-06 08:37 54.08269 7.91204 916 ft 115 kts
2026-05-06 08:37 54.09066 7.91193 918 ft 114 kts
2026-05-06 08:38 54.09854 7.91182 918 ft 113 kts
2026-05-06 08:38 54.10642 7.91173 919 ft 114 kts
2026-05-06 08:38 54.11437 7.91162 920 ft 114 kts
2026-05-06 08:38 54.12232 7.91152 918 ft 115 kts
2026-05-06 08:39 54.13031 7.91143 915 ft 114 kts
2026-05-06 08:39 54.13821 7.91131 917 ft 113 kts
2026-05-06 08:39 54.14574 7.91394 844 ft 112 kts 28°
2026-05-06 08:39 54.15210 7.92131 857 ft 107 kts 40°
2026-05-06 08:40 54.15848 7.92761 815 ft 114 kts 19°
2026-05-06 08:40 54.16603 7.93021 732 ft 101 kts
2026-05-06 08:40 54.17294 7.92859 472 ft 104 kts 348°
2026-05-06 08:40 54.17918 7.92179 209 ft 105 kts 325°
2026-05-06 08:41 54.18496 7.91470 25 ft 94 kts 321°
2026-05-06 08:41 54.18924 7.90658 290 ft 98 kts 296°
2026-05-06 08:41 54.18837 7.89368 368 ft 117 kts 255°
2026-05-06 08:41 54.18570 7.88071 582 ft 113 kts 238°
2026-05-06 08:42 54.17943 7.87062 426 ft 132 kts 203°
2026-05-06 08:42 54.17194 7.87321 684 ft 111 kts 128°
2026-05-06 08:42 54.16603 7.88351 602 ft 125 kts 122°
2026-05-06 08:42 54.16066 7.89503 638 ft 123 kts 119°
2026-05-06 08:43 54.15565 7.90692 625 ft 121 kts 113°
2026-05-06 08:43 54.15477 7.91566 645 ft 105 kts 68°
2026-05-06 08:43 54.16224 7.92483 637 ft 110 kts 29°
2026-05-06 08:43 54.16462 7.92675 573 ft 113 kts 27°
2026-05-06 08:44 54.17669 7.93284 445 ft 126 kts 342°
2026-05-06 08:44 54.18110 7.91991 86 ft 120 kts 309°
2026-05-06 08:44 54.18656 7.91277 8 ft 81 kts 322°
2026-05-06 08:44 54.18698 7.91224 4 ft 0 kts 322°
2026-05-06 08:46 54.18584 7.91375 5 ft 0 kts 322°
2026-05-06 08:48 54.18595 7.91377 5 ft 5 kts 52°
2026-05-06 08:48 54.18639 7.91413 5 ft 8 kts 42°
2026-05-06 08:49 54.18644 7.91423 5 ft 0 kts 51°